This is the latest recevied weather packets stored in our database for station/object DN9EM-3. If no packets are shown the sender has not sent any weather packets the latest 10 day(s).
| Time | Temp. | Humidity | Pressure | Rain* | Wind** | Luminosity | Snow |
|---|---|---|---|---|---|---|---|
| 1788531638 | 17.78° C | 92% | 1005.8 hPa | 1.78 mm | - | - | - |
| 1788531036 | 17.78° C | 91% | 1005.6 hPa | 0.25 mm | - | - | - |
| 1788530433 | 17.78° C | 91% | 1005.8 hPa | 0.25 mm | - | - | - |
| 1788529830 | 17.78° C | 91% | 1006.1 hPa | 0 mm | - | - | - |
| 1788529228 | 17.78° C | 91% | 1006.4 hPa | 0 mm | - | - | - |
| 1788528625 | 17.78° C | 92% | 1006.1 hPa | 0 mm | - | - | - |
| 1788528023 | 17.78° C | 92% | 1006.1 hPa | 0 mm | - | - | - |
| 1788527420 | 18.33° C | 92% | 1006.3 hPa | 0 mm | - | - | - |
| 1788526818 | 17.78° C | 92% | 1005.7 hPa | 0 mm | - | - | - |
| 1788526215 | 17.78° C | 92% | 1005.6 hPa | 0 mm | - | - | - |
| 1788525673 | 17.78° C | 92% | 1005.7 hPa | 0 mm | - | - | - |
| 1788525070 | 17.78° C | 93% | 1006.5 hPa | 0 mm | - | - | - |
| 1788524467 | 17.78° C | 93% | 1006.4 hPa | 0 mm | - | - | - |
| 1788523865 | 17.78° C | 93% | 1006.5 hPa | 0 mm | - | - | - |
| 1788523262 | 17.78° C | 94% | 1006.2 hPa | 1.78 mm | - | - | - |
| 1788522660 | 17.78° C | 94% | 1006 hPa | 4.57 mm | - | - | - |
| 1788522057 | 17.78° C | 94% | 1005.7 hPa | 7.62 mm | - | - | - |
| 1788521455 | 17.22° C | 94% | 1005.5 hPa | 8.38 mm | - | - | - |
| 1788520852 | 17.22° C | 94% | 1005.1 hPa | 11.43 mm | - | - | - |
| 1788520249 | 16.67° C | 94% | 1005.6 hPa | 12.19 mm | - | - | - |
| 1788519647 | 17.22° C | 94% | 1005.4 hPa | 11.68 mm | - | - | - |
| 1788519044 | 17.22° C | 94% | 1005.1 hPa | 10.16 mm | - | - | - |
| 1788518442 | 17.22° C | 94% | 1004.5 hPa | 8.13 mm | - | - | - |
| 1788517839 | 17.22° C | 94% | 1004.5 hPa | 8.38 mm | - | - | - |
| 1788517236 | 17.22° C | 94% | 1004.9 hPa | 7.62 mm | - | - | - |
* Rain latest hour (hover to see other rain measurements)
** Current wind speed in m/s (hover to see current wind gust speed)